Tracking 19170 objects as of 23-May-2018
HD Live streaming from Space Station
objects crossing your sky now

COSMOS 2285

Track COSMOS 2285 now!
10-day predictions
COSMOS 2285 is classified as:


NORAD ID: 23189
Int'l Code: 1994-045A
Perigee: 979.5 km
Apogee: 1,017.5 km
Inclination: 74.0 °
Period: 104.9 minutes
Semi major axis: 7369 km
RCS: 1.9645 m2 (large)
Launch date: August 2, 1994
Source: Commonwealth of Independent States (former USSR) (CIS)
Launch site: PLESETSK MISSILE AND SPACE COMPLEX (PKMTR)
aabbcc
Your satellite tracking list
Your tracking list is empty




NASA's NSSDC Master Catalog

Two Line Element Set (TLE):
1 23189U 94045A   18142.62679223 -.00000002 +00000-0 +22667-4 0  9998
2 23189 074.0284 303.8159 0025763 223.5741 206.3229 13.72280740192039
Source of the keplerian elements: AFSPC